Flag for Albania Weather past 2 weeks in Durrës, Albania

Now
41 °F

Partly cloudy.


Feels Like: 39 °F
Forecast: 49 / 57 °F
Wind: 3 mph from North

Location: Tirana Airport

Current Time: Mar 6, 2015 at 5:37:04 AM

Latest Report: Mar 6, 2015 at 4:20 AM


Visibility: N/A

Pressure: 29.89 "Hg

Humidity: 93%

Dew point: 39 °F

Location of DurrësLocation

Historic Weather in Durrës — Graph

°F

Durrës temperature yesterday

Maximum temperature yesterday: 59 °F (at 1:50 PM)
Minimum temperature yesterday: 45 °F (at 11:50 PM)
Average temperature yesterday: 54 °F

Past Weeks' High & Low Weather Summary

 TemperatureHumidityPressure
High68 °F (Mar 4, 1:20 PM)94% (Feb 23, 7:50 AM)30.48 "Hg (Feb 23, 7:50 AM)
Low25 °F (Feb 19, 3:20 AM)10% (Feb 19, 11:20 AM)29.53 "Hg (Feb 25, 3:20 AM)
Average51 °F72%29.94 "Hg
* Reported Feb 19 3:20 AM — Mar 6 3:50 AM, Durrës, Weather by CustomWeather, © 2015

Note: Actual official high and low records may vary slightly from our data, if they occured in-between our weather recording intervals... More about our weather records

Advertising

Durrës weather history for previous 24 hours

 ConditionsComfort  
Time TempWeatherWind HumidityBarometerVisibility
3:50 AM
Fri, Mar 6
43 °FPartly cloudy.2 mph87%29.86 "HgN/A
3:20 AM43 °FPartly cloudy.5 mph87%29.86 "HgN/A
2:50 AM45 °FPartly cloudy.3 mph87%29.86 "HgN/A
2:20 AM45 °FPartly cloudy.5 mph93%29.86 "HgN/A
1:50 AM45 °FLight rain. Mostly cloudy.2 mph93%29.89 "HgN/A
1:20 AM45 °FLight rain. Partly cloudy.7 mph93%29.89 "HgN/A
12:50 AM45 °FRain. Mostly cloudy.7 mph93%29.89 "HgN/A
12:20 AM45 °FLight rain. Overcast.8 mph93%29.89 "HgN/A
11:50 PM
Thu, Mar 5
45 °FRain. Mostly cloudy.8 mph87%29.86 "HgN/A
11:20 PM46 °FLight rain. Mostly cloudy.8 mph93%29.86 "HgN/A
10:50 PM46 °FRain. Mostly cloudy.7 mph93%29.86 "HgN/A
10:20 PM46 °FRain. Mostly cloudy.6 mph93%29.86 "HgN/A
9:50 PM48 °FLight rain. Overcast.8 mph87%29.83 "HgN/A
9:20 PM50 °FLight rain. Low clouds.7 mph88%29.80 "HgN/A
8:50 PM52 °FRain. Mostly cloudy.5 mph88%29.80 "Hg3 mi
8:20 PM50 °FRain. Mostly cloudy.2 mph94%29.80 "Hg4 mi
7:50 PM50 °FHeavy rain. Overcast.6 mph94%29.77 "Hg2 mi
7:20 PM52 °FHeavy rain. Overcast.6 mph88%29.77 "Hg2 mi
6:50 PM52 °FStrong thunderstorms. Mostly cloudy.10 mph88%29.77 "Hg4 mi
6:20 PM54 °FRain. Partly cloudy.6 mph88%29.74 "Hg5 mi
5:50 PM52 °FThundershowers. Mostly cloudy.20 mph94%29.71 "Hg3 mi
5:20 PM57 °FLight rain. Cloudy.6 mph77%29.62 "HgN/A
4:50 PM57 °FBroken clouds.3 mph82%29.65 "HgN/A
4:20 PM57 °FBroken clouds.5 mph77%29.65 "HgN/A
3:50 PM57 °FPartly sunny.6 mph82%29.68 "HgN/A
3:20 PM57 °FLight rain. Broken clouds.8 mph77%29.71 "HgN/A
2:50 PM59 °FLight rain. Mostly cloudy.10 mph68%29.71 "HgN/A
2:20 PM59 °FCloudy.13 mph68%29.74 "HgN/A
1:50 PM59 °FLight rain. Broken clouds.8 mph72%29.74 "HgN/A
1:20 PM57 °FLight rain. Mostly cloudy.7 mph82%29.77 "HgN/A
12:50 PM57 °FLight rain. Mostly cloudy.8 mph77%29.77 "HgN/A
12:20 PM57 °FLight rain. Mostly cloudy.12 mph77%29.80 "HgN/A
11:50 AM57 °FMostly cloudy.10 mph77%29.80 "HgN/A
11:20 AM57 °FLight rain. Mostly cloudy.12 mph77%29.80 "HgN/A
10:50 AM57 °FRain. Mostly cloudy.13 mph77%29.83 "HgN/A
10:20 AM57 °FLight rain. Mostly cloudy.14 mph77%29.83 "HgN/A
9:50 AM55 °FLight rain. Mostly cloudy.9 mph82%29.83 "HgN/A
9:20 AM55 °FRain. Mostly cloudy.9 mph82%29.83 "HgN/A
8:50 AM54 °FRain. Mostly cloudy.9 mph88%29.86 "HgN/A
8:20 AM54 °FRain. Cloudy.10 mph94%29.86 "HgN/A
7:50 AM55 °FLight rain. More clouds than sun.8 mph77%29.83 "HgN/A
7:20 AM55 °FLight rain. More clouds than sun.7 mph77%29.83 "HgN/A
6:50 AM54 °FDrizzle. More clouds than sun.3 mph82%29.80 "HgN/A
6:20 AM54 °FRain. More clouds than sun.5 mph82%29.83 "HgN/A
5:50 AM52 °FLight rain. Mostly cloudy.6 mph94%29.83 "HgN/A
5:20 AM52 °FLight rain. Mostly cloudy.7 mph94%29.86 "HgN/A
Weather by CustomWeather, © 2015

See weather overviewHow to use our weather pages